Skip Page Navigation
NASA JPL Caltech
NASA Logo - Jet Propulsion Laboratory + View the NASA Portal
+ Center for Near-Earth Object Studies
JPL Home Earth Solar System Stars & Galaxies Technology
JPL Solar System Dynamics
BODIES ORBITS EPHEMERIDES TOOLS PHYSICAL DATA DISCOVERY FAQ SITE MAP
JPL Small-Body Database Browser
Search: [ help ]  
332216 (2006 GC22)
Classification: Main-belt Asteroid          SPK-ID: 2332216
Ephemeris | Orbit Diagram | Orbital Elements | Mission Design | Physical Parameters | Discovery Circumstances | Close-Approach Data ]

[ show orbit diagram ]
Orbital Elements at Epoch 2459000.5 (2020-May-31.0) TDB
Reference: JPL 12 (heliocentric ecliptic J2000)
 Element Value Uncertainty (1-sigma)   Units 
e .05649352640606355 8.2086e-08  
a 3.132044874530408 4.4313e-08 au
q 2.955104614706148 2.669e-07 au
i 11.37660368502262 8.4254e-06 deg
node 190.9845710078022 2.8229e-05 deg
peri 359.7030316562058 5.7352e-05 deg
M 215.4957417707019 5.1574e-05 deg
tp 2459813.178059295195
(2022-Aug-21.67805930)
0.0002935 TDB
period 2024.605398700654
5.54
4.2967e-05
1.176e-07
d
yr
n .1778124271678026 3.7736e-09 deg/d
Q 3.308985134354667 4.6817e-08 au
  Orbit Determination Parameters
   # obs. used (total)      167  
   data-arc span      5842 days (15.99 yr)  
   first obs. used      2003-10-29  
   last obs. used      2019-10-27  
   planetary ephem.      DE431  
   SB-pert. ephem.      SB431-N16  
   condition code      0  
   norm. resid. RMS      .60911  
   source      ORB  
   producer      Otto Matic  
   solution date      2019-Nov-08 09:44:39  

Additional Information
 Earth MOID = 1.95508 au 
 Jupiter MOID = 1.64682 au 
 T_jup = 3.180 
[ show covariance matrix ]

Ephemeris | Orbit Diagram | Orbital Elements | Mission Design | Physical Parameters | Discovery Circumstances | Close-Approach Data ]

Physical Parameter Table
Parameter Symbol Value Units Sigma Reference Notes
absolute magnitude H 16.1   n/a MPO418705  

332216 (2006 GC22)          Discovered 2006-Apr-02 by Spacewatch at Kitt Peak
Reference: 20120703/Numbers.arcLast Updated: 2012-07-09

[ show close-approach data ]
Ephemeris | Orbit Diagram | Orbital Elements | Mission Design | Physical Parameters | Discovery Circumstances | Close-Approach Data ]
ABOUT SSD CREDITS/AWARDS PRIVACY/COPYRIGHT GLOSSARY LINKS
FirstGov 2020-Sep-26 10:28 UT
(server date/time)  
NASA Home Page
Site Manager:   Ryan S. Park
Webmaster  Alan B. Chamberlin